Location: Unspecified
(48.2082°N, 0.0000°E)
Time: 18:40:14
(UTC+00:00)

Tiros 1 despin weight - Pass Details

Date: 23 June 2019
Orbit: 594 x 642 km, 48.2° (Epoch: 16 July)

Event Time Altitude Azimuth Distance (km) Brightness Sun altitude
Rises 22:35:11 0° 223° (SW) 2,853 - -15.8°
Reaches altitude 10° 22:37:38 10° 214° (SW) 1,944 - -15.9°
Exits shadow 22:40:05 26° 189° (S) 1,188 ? -16.0°
Maximum altitude 22:41:39 34° 150° (SSE) 992 ? -16.1°
Drops below altitude 10° 22:45:39 10° 85° (E) 1,933 ? -16.3°
Sets 22:48:05 0° 76° (ENE) 2,834 ? -16.5°
